{"data":{"norad_id":57359,"intl_designator":"2023-099AH","name":"STARLINK-6347","alt_names":[],"object_type":"PAYLOAD","status":"ACTIVE","operator":null,"country":"US","launch_date":"2023-07-16","launch_site_code":"AFETR","launch_vehicle":null,"mission":null,"orbit_class":"UNKNOWN","rcs_meters":null,"size_class":null,"mass_kg":null,"dimensions":null,"purposes":["comms"],"wikipedia_slug":null,"has_3d_model":false,"image_url":null,"decayed_at":null,"tle_current":{"epoch":"2026-05-24T18:30:45.948096Z","epoch_age_seconds":88679,"freshness":"FRESH","line1":"1 57359U 23099AH  26144.77136514  .00000710  00000+0  35307-4 0  9992","line2":"2 57359  43.0007 172.1296 0001228 270.0617  90.0094 15.27584590157831","mean_motion":15.2758459,"eccentricity":0.0001228,"inclination_deg":43.0007,"raan_deg":172.1296,"arg_perigee_deg":270.0617,"mean_anomaly_deg":90.0094,"bstar":3.5307e-5,"rev_number":15783,"period_min":94.266465466243,"perigee_km":482.192799998,"apogee_km":483.87790392764,"semimajor_km":6861.1723519628,"source":"CELESTRAK","updated_at":"2026-05-25T13:38:18.292259Z"}}}